Flag for Germany Weather past 2 weeks in Karlsruhe, Baden-Württemberg, Germany

Now
34 °F

Light snow. Partly cloudy.


Feels Like: 26 °F
Forecast: 14 / 34 °F
Wind: 9 mph from Southwest

Location: Karlsruhe - Baden Wurttemberg

Current Time: Dec 27, 2014 at 10:30:31 PM

Latest Report: Dec 27, 2014 at 9:50 PM


Visibility: 5 mi

Pressure: 29.45 "Hg

Humidity: 93%

Dew point: 32 °F

Location of KarlsruheLocation

Historic Weather in Karlsruhe — Graph

°F

Karlsruhe temperature yesterday

Maximum temperature yesterday: 41 °F (at 2:20 PM)
Minimum temperature yesterday: 32 °F (at 10:20 PM)
Average temperature yesterday: 38 °F

Past Weeks' High & Low Weather Summary

 TemperatureHumidityPressure
High54 °F (Dec 18, 5:50 PM)100% (Dec 14, 3:20 PM)30.54 "Hg (Dec 14, 3:20 PM)
Low30 °F (Dec 23, 10:20 PM)50% (Dec 15, 2:50 PM)29.39 "Hg (Dec 27, 4:50 PM)
Average44 °F79%30.12 "Hg
* Reported Dec 12 8:20 PM — Dec 27 8:50 PM, Karlsruhe, Weather by CustomWeather, © 2014

Note: Actual official high and low records may vary slightly from our data, if they occured in-between our weather recording intervals... More about our weather records

Advertising

Karlsruhe weather history for previous 24 hours

 ConditionsComfort  
Time TempWeatherWind HumidityBarometerVisibility
8:50 PM
Dec 27
34 °FSnow. Passing clouds.8 mph93%29.45 "Hg4 mi
8:20 PM36 °FRain. Passing clouds.13 mph93%29.42 "Hg4 mi
7:50 PM36 °FRain. Passing clouds.10 mph93%29.42 "Hg4 mi
7:20 PM36 °FRain. Passing clouds.14 mph93%29.42 "Hg4 mi
6:50 PM37 °FRain. Passing clouds.20 mph87%29.39 "Hg4 mi
6:20 PM37 °FRain. Passing clouds.22 mph93%29.39 "Hg4 mi
5:50 PM37 °FRain. Passing clouds.22 mph93%29.39 "Hg4 mi
5:20 PM37 °FRain. Passing clouds.21 mph93%29.39 "Hg4 mi
4:50 PM37 °FRain. Passing clouds.22 mph93%29.39 "Hg4 mi
4:20 PM37 °FRain. Partly sunny.21 mph93%29.42 "Hg4 mi
3:50 PM37 °FRain. Partly sunny.17 mph93%29.42 "Hg4 mi
3:20 PM39 °FRain. Partly sunny.22 mph87%29.42 "Hg4 mi
2:50 PM39 °FRain. Partly sunny.17 mph87%29.42 "Hg4 mi
2:20 PM39 °FLight rain. Broken clouds.20 mph87%29.45 "HgN/A
1:50 PM39 °FLight rain. Broken clouds.16 mph87%29.45 "HgN/A
1:20 PM39 °FLight rain. Broken clouds.16 mph87%29.45 "HgN/A
12:50 PM39 °FLight rain. Broken clouds.15 mph87%29.45 "HgN/A
12:20 PM39 °FLight rain. Partly sunny.18 mph87%29.47 "HgN/A
11:50 AM37 °FLight rain. More clouds than sun.22 mph93%29.47 "HgN/A
11:20 AM37 °FBroken clouds.18 mph93%29.47 "HgN/A
10:50 AM37 °FLight rain. Broken clouds.18 mph87%29.47 "HgN/A
10:20 AM36 °FLight rain. Mostly cloudy.18 mph93%29.50 "HgN/A
9:50 AM36 °FRain. Partly sunny.16 mph93%29.53 "Hg4 mi
9:20 AM34 °FRain. Low clouds.3 mph93%29.56 "Hg6 mi
8:50 AM32 °FLight snow. More clouds than sun.2 mph100%29.56 "Hg2 mi
8:20 AM32 °FSnow. Mostly cloudy.2 mph100%29.59 "Hg1 mi
7:50 AM32 °FLight snow. Mostly cloudy.2 mph100%29.62 "Hg2 mi
7:20 AM32 °FLight snow. Low clouds.6 mph100%29.68 "Hg2 mi
6:50 AM32 °FSnow. Passing clouds.5 mph93%29.71 "Hg1 mi
6:20 AM32 °FSnow. Partly cloudy.7 mph93%29.77 "Hg1 mi
5:50 AM34 °FRain. Partly cloudy.20 mph87%29.80 "Hg1 mi
5:20 AM37 °FPassing clouds.10 mph60%29.83 "HgN/A
10:50 PM
Dec 26
32 °FPassing clouds.3 mph93%30.24 "HgN/A
10:20 PM32 °FPassing clouds.3 mph93%30.24 "HgN/A
Weather by CustomWeather, © 2014

See weather overviewHow to use our weather pages